This is the latest recevied weather packets stored in our database for station/object KF7ROW. If no packets are shown the sender has not sent any weather packets the latest 10 day(s).
| Time | Temp. | Humidity | Pressure | Rain* | Wind** | Luminosity | Snow |
|---|---|---|---|---|---|---|---|
| 1778009633 | 14.44° C | 85% | 1021.3 hPa | 0 mm | - | 145 W/m² | - |
| 1778009330 | 13.89° C | 85% | 1021.2 hPa | 0 mm | - | 148 W/m² | - |
| 1778009029 | 13.89° C | 84% | 1021.3 hPa | 0 mm | - | 152 W/m² | - |
| 1778008726 | 14.44° C | 85% | 1021.2 hPa | 0 mm | - | 154 W/m² | - |
| 1778008424 | 14.44° C | 85% | 1021.1 hPa | 0 mm | - | 157 W/m² | - |
| 1778008121 | 13.89° C | 85% | 1021 hPa | 0 mm | - | 178 W/m² | - |
| 1778007816 | 13.89° C | 85% | 1021 hPa | 0 mm | - | 195 W/m² | - |
| 1778007512 | 13.89° C | 86% | 1021 hPa | 0 mm | - | 204 W/m² | - |
| 1778007209 | 13.89° C | 87% | 1021.2 hPa | 0 mm | - | 197 W/m² | - |
| 1778006905 | 13.89° C | 87% | 1021.1 hPa | 0 mm | - | 191 W/m² | - |
| 1778006602 | 13.89° C | 88% | 1021.1 hPa | 0 mm | - | 182 W/m² | - |
| 1778006299 | 13.89° C | 88% | 1020.9 hPa | 0 mm | - | 195 W/m² | - |
| 1778005996 | 13.89° C | 88% | 1021 hPa | 0 mm | - | 194 W/m² | - |
| 1778005693 | 13.89° C | 87% | 1021.1 hPa | 0 mm | - | 185 W/m² | - |
| 1778005389 | 13.89° C | 86% | 1021.1 hPa | 0 mm | - | 184 W/m² | - |
| 1778005086 | 13.89° C | 86% | 1020.9 hPa | 0 mm | - | 193 W/m² | - |
| 1778004783 | 13.89° C | 85% | 1020.9 hPa | 0 mm | - | 195 W/m² | - |
| 1778004480 | 13.89° C | 87% | 1021 hPa | 0 mm | - | 195 W/m² | - |
| 1778004176 | 13.89° C | 88% | 1020.7 hPa | 0 mm | - | 199 W/m² | - |
| 1778003873 | 13.89° C | 88% | 1020.9 hPa | 0 mm | - | 197 W/m² | - |
| 1778003569 | 13.89° C | 88% | 1020.8 hPa | 0 mm | - | 182 W/m² | - |
| 1778003266 | 13.89° C | 88% | 1020.7 hPa | 0 mm | - | 183 W/m² | - |
| 1778002963 | 13.89° C | 89% | 1020.8 hPa | 0 mm | - | 165 W/m² | - |
| 1778002659 | 13.89° C | 88% | 1020.6 hPa | 0 mm | - | 152 W/m² | - |
| 1778002356 | 13.89° C | 89% | 1020.8 hPa | 0 mm | - | 146 W/m² | - |
* Rain latest hour (hover to see other rain measurements)
** Current wind speed in m/s (hover to see current wind gust speed)